STARLINK-2507, 48316

Orbit data source: Space-Track

STARLINK-2507, 48316 is a payload satellite owned by SpaceX/Seattle (US) in LEO that was launched on Thu, 29 Apr 2021 UTC via an FALCON 9 launch vehicle from the Air Force Eastern Test Range (AFETR). Payload-class satellites include a variety of spacecraft equipped with specific instruments for various scientific and technological missions. These include communications satellites like Starlink; space stations such as the ISS; scientific satellites like the Hubble; Earth observation satellites from companies like Planet Labs, Umbra, and HawkEye 360; GPS; miniature CubeSats for education and research; and military/defense satellites.

Loading next visibility...
Identifier
48316, 2021-036AS
Orbit
LEO
Country
Flag of USUS
Related business
Manufacturer
SpaceX/Seattle
Mission
Operational Commercial Communications
Bus & Motor
STARLINK, Unknown motor
Mass
260 kg wet, ~248 kg dry
Launch date (UTC)
2021-04-29 (4 years ago)
Launch vehicle
FALCON 9
Launch site
Air Force Eastern Test Range (AFETR)
Object type
Payload
Rocket body
Debris
Shape & HBR
Box + 1 Pan, 10.1 m
Radar Cross Section
13.562 m², Large (>1 m²)

Expand to show TLE details & history
Last TLE update: 14 hours ago

TLE from 14 hours ago
0 STARLINK-2507
1 48316U 21036AS  25290.95911840  .00001180  00000-0  98098-4 0  9997
2 48316  53.0567  12.3623 0001392  87.9214 272.1935 15.06403737246651
Epoch: 2025-10-17T23:01Z
TLE epoch observation values (Epoch: 2025-10-17T23:01:07.829Z)
Latitude
0.00001°
Longitude
0.38268°
Altitude
548.043 km
Speed
7.589 km/s
True Right ascension
00h 49m 26s
True Declination
0° 00' 00"
Sunlit
Object was in full shadow at epoch
Visualization orbit readout
Latitude
Unknown
Longitude
Unknown
Altitude
Unknown
Speed
Unknown
Apparent Right ascension
Unknown
Apparent Declination
Unknown
Sunlit
N/A
Visualization observer readout
Local Sidereal Time
07:43:31
Azimuth
Unknown
Elevation
Unknown
Doppler factor
Unknown
Orbital elements
Apogee altitude
548.435 km
Perigee altitude
546.506 km
Semi-major axis
6,925.607 km
Eccentricity
0.00014
Inclination
53.0567°
RAAN
12.3623°
Arg. of periapsis
87.9214°
True anomaly
272.17756°
Mean anomaly
272.1935°
Eccentric anomaly
272.18553°
Mean motion
3.76579 °/min
Orbital period
95.6 mins
BSTAR
0.000098098
Loading maneuver chart data...
Computing Atmospheric mass density...
Loading historical data...
Loading historical data...
Loading historical data...
Loading historical data...
Loading historical data...
Loading historical data...
Loading historical data...

Documentation

Showing up to 5 results
|